"Pseudo-MPEC" for YUD0001

Created 2019 Oct 16 16:07:15 UT using Find_Orb

Click here for an explanation of pseudo-MPECs

 
 Astrometry: 
     YUD0001 ^C2019 10 08.52127 04 09 56.943+04 57 44.75   ~AA3q 21.8 GVNEOCP568
     YUD0001 ^C2019 10 08.53253 04 09 58.497+04 57 42.89   ~AA3q 21.7 GVNEOCP568

Station data:
(568) Mauna Kea  (N19.826116 W155.472200)  US/Hawaii.

Orbital elements:  YUD0001
   Perihelion 2019 Oct 17.492928 +/- 31 TT = 11:49:49 (JD 2458773.992928)
Epoch 2019 Oct  9.0 TT = JDT 2458765.5   Earth MOID: 0.2604   Ma: 0.0146
M 357.51173489 +/- 34               (J2000 ecliptic)          AutoNEOCP
n   0.29298082 +/- 0.403            Peri.  259.49645 +/- 100
a   2.24513908 +/- 2.06             Node   133.75801 +/- 52
e   0.4471807 +/- 0.247             Incl.    4.40132 +/- 25
P   3.36                   H 22.5   G  0.15   U 12.1  SR
q 1.24115603 +/- 0.451    Q 3.24912213 +/- 31.4
From 2 observations 2019 Oct. 8 (16.2 min); mean residual 0".01
Residuals in arcseconds: 
191008 568  .01+  .00     191008 568  .01+  .00     

Ephemerides (geocentric):
Date (UTC) HH   RA              Dec         delta   r     elong  mag " sig PA
---- -- -- --  -------------   -----------  ------ ------ -----  --- ---- ---
2019 10 16 16  04 28 27.067   +04 36 19.72  .32034 1.2412 134.1 21.9  68d   3
2019 10 16 17  04 28 32.208   +04 36 13.85  .32029 1.2412 134.1 21.9  68d   3
2019 10 16 18  04 28 37.343   +04 36 07.99  .32023 1.2412 134.1 21.9  68d   3
2019 10 16 19  04 28 42.472   +04 36 02.14  .32018 1.2412 134.1 21.9  68d   3
2019 10 16 20  04 28 47.595   +04 35 56.30  .32013 1.2412 134.1 21.9  68d   3
2019 10 16 21  04 28 52.713   +04 35 50.48  .32007 1.2412 134.1 21.9  68d   3
2019 10 16 22  04 28 57.824   +04 35 44.66  .32002 1.2412 134.2 21.9  68d   3
2019 10 16 23  04 29 02.929   +04 35 38.86  .31997 1.2412 134.2 21.9  68d   3
2019 10 17 00  04 29 08.029   +04 35 33.06  .31991 1.2412 134.2 21.9  68d   3
2019 10 17 01  04 29 13.122   +04 35 27.28  .31986 1.2412 134.2 21.9  69d   3
2019 10 17 02  04 29 18.210   +04 35 21.51  .31981 1.2412 134.2 21.9  69d   3
2019 10 17 03  04 29 23.291   +04 35 15.76  .31975 1.2412 134.2 21.9  69d   3
2019 10 17 04  04 29 28.367   +04 35 10.01  .31970 1.2412 134.3 21.9  69d   3
2019 10 17 05  04 29 33.437   +04 35 04.28  .31965 1.2412 134.3 21.9  69d   3
2019 10 17 06  04 29 38.500   +04 34 58.56  .31960 1.2412 134.3 21.9  69d   3
2019 10 17 07  04 29 43.558   +04 34 52.85  .31954 1.2412 134.3 21.9  69d   3
2019 10 17 08  04 29 48.610   +04 34 47.15  .31949 1.2412 134.3 21.9  69d   3
2019 10 17 09  04 29 53.656   +04 34 41.46  .31944 1.2412 134.3 21.9  69d   3
2019 10 17 10  04 29 58.695   +04 34 35.79  .31939 1.2412 134.4 21.9  69d   3
2019 10 17 11  04 30 03.729   +04 34 30.12  .31934 1.2412 134.4 21.9  69d   3
2019 10 17 12  04 30 08.757   +04 34 24.47  .31928 1.2412 134.4 21.9  70d   3
2019 10 17 13  04 30 13.779   +04 34 18.84  .31923 1.2412 134.4 21.9  70d   3
2019 10 17 14  04 30 18.794   +04 34 13.21  .31918 1.2412 134.4 21.9  70d   3
2019 10 17 15  04 30 23.804   +04 34 07.60  .31913 1.2412 134.4 21.9  70d   3
2019 10 17 16  04 30 28.808   +04 34 02.00  .31908 1.2412 134.5 21.9  70d   3
2019 10 17 17  04 30 33.806   +04 33 56.41  .31903 1.2412 134.5 21.9  70d   3
2019 10 17 18  04 30 38.797   +04 33 50.83  .31898 1.2412 134.5 21.9  70d   3
2019 10 17 19  04 30 43.783   +04 33 45.27  .31893 1.2412 134.5 21.9  70d   3
2019 10 17 20  04 30 48.763   +04 33 39.72  .31888 1.2412 134.5 21.9  70d   3
2019 10 17 21  04 30 53.736   +04 33 34.18  .31882 1.2412 134.5 21.9  70d   3
2019 10 17 22  04 30 58.703   +04 33 28.66  .31877 1.2412 134.6 21.9  70d   3
2019 10 17 23  04 31 03.665   +04 33 23.14  .31872 1.2412 134.6 21.9  70d   3
2019 10 18 00  04 31 08.620   +04 33 17.65  .31867 1.2412 134.6 21.9  70d   3
2019 10 18 01  04 31 13.569   +04 33 12.16  .31862 1.2412 134.6 21.9  70d   3
2019 10 18 02  04 31 18.513   +04 33 06.69  .31857 1.2412 134.6 21.9  71d   3
2019 10 18 03  04 31 23.450   +04 33 01.23  .31852 1.2412 134.6 21.9  71d   3
2019 10 18 04  04 31 28.381   +04 32 55.78  .31847 1.2412 134.7 21.9  71d   3
2019 10 18 05  04 31 33.306   +04 32 50.34  .31842 1.2412 134.7 21.9  71d   3
2019 10 18 06  04 31 38.224   +04 32 44.92  .31838 1.2412 134.7 21.9  71d   3
2019 10 18 07  04 31 43.137   +04 32 39.51  .31833 1.2412 134.7 21.9  71d   3
2019 10 18 08  04 31 48.044   +04 32 34.12  .31828 1.2412 134.7 21.9  71d   3
2019 10 18 09  04 31 52.944   +04 32 28.74  .31823 1.2412 134.7 21.9  71d   3
2019 10 18 10  04 31 57.838   +04 32 23.37  .31818 1.2412 134.8 21.9  71d   3
2019 10 18 11  04 32 02.727   +04 32 18.02  .31813 1.2412 134.8 21.9  71d   3
2019 10 18 12  04 32 07.609   +04 32 12.68  .31808 1.2412 134.8 21.9  71d   3
2019 10 18 13  04 32 12.485   +04 32 07.35  .31803 1.2412 134.8 21.9  71d   3
2019 10 18 14  04 32 17.354   +04 32 02.04  .31798 1.2412 134.8 21.9  71d   3
2019 10 18 15  04 32 22.218   +04 31 56.74  .31794 1.2412 134.9 21.9  71d   3